Location: Boley
(53.1150°N, 8.2269°W)
Time: 23:20:03
(UTC+00:00)

Cosmos-2242 - Pass Details

Date: 15 May 2026
Orbit: 565 x 588 km, 82.5° (Epoch: 6 June)

Event Time Altitude Azimuth Distance (km) Brightness Sun altitude
Exits shadow 23:14:00 24° 200° (SSW) 1,202 4.1 -16.0°
Maximum altitude 23:16:25 75° 281° (W) 594 3.0 -16.1°
Drops below altitude 10° 23:20:33 10° 8° (N) 1,877 6.6 -16.3°
Sets 23:22:45 0° 10° (N) 2,778 7.6 -16.4°
